Location: McLaughlin
(0.0000°N, 0.0000°E)
Time: 18:11:50
(UTC+00:00)

Envisat - Pass Details

Date: 27 June 2019
Orbit: 764 x 766 km, 98.1° (Epoch: 16 July)

Event Time Altitude Azimuth Distance (km) Brightness Sun altitude
Rises 18:25:22 0° 157° (SSE) 3,231 5.8 -5.1°
Reaches altitude 10° 18:27:46 10° 151° (SSE) 2,303 5.0 -5.7°
Maximum altitude 18:32:37 47° 78° (ENE) 1,010 3.3 -6.8°
Drops below altitude 10° 18:37:27 10° 5° (N) 2,293 5.7 -7.9°
Sets 18:39:49 0° 359° (N) 3,216 6.6 -8.4°
